Weather History for Pecos, TX

Change the Weather History Date:

Friday, November 9, 2012

  Actual Average Record
Temperature  
Mean Temperature 66 °F -  
Max Temperature 87 °F 75 °F 90 °F (1975)
Min Temperature 45 °F 39 °F 19 °F (1943)
Cooling Degree Days 1    
Growing Degree Days 16 (Base 50)    
Moisture  
Dew Point 40 °F    
Average Humidity 40    
Maximum Humidity 65    
Minimum Humidity 17    
Precipitation  
Precipitation 0.00 in - - ()
Sea Level Pressure  
Sea Level Pressure 29.91 in    
Wind  
Wind Speed 4 mph (SE)    
Max Wind Speed 15 mph    
Max Gust Speed 21 mph    
Visibility 10 miles    
Events      
Averages and records for this station are not official NWS values.
T = Trace of Precipitation, MM = Missing Value Source: NWS Daily Summary

Daily Weather History Graph

Daily Weather History Graph

Search for Another Location

Airport:

Trip Planner

Search our weather history database for the weather conditions in past years. The results will help you decide how hot, cold, wet, or windy it might be!

Date:

Astronomy

Nov. 09, 2012 Rise Set
Actual Time 7:16 AM CST 5:58 PM CST
Civil Twilight 6:51 AM CST 6:24 PM CST
Nautical Twilight 6:22 AM CST 6:53 PM CST
Astronomical Twilight 5:53 AM CST 7:21 PM CST
Moon 2:35 AM CST (11/9) 2:58 PM CST (11/9)
Length of Visible Light 11h 32m
Length of Day
10h 41m
Waning Crescent, 23% of the Moon is Illuminated
Nov 9
Waning Crescent
Nov 13
New
Nov 20
First Quarter
Nov 28
Full
Dec 6
Last Quarter

Hourly Weather History & Observations

Time (CST) Temp. Windchill Dew Point Humidity Pressure Visibility Wind Dir Wind Speed Gust Speed Precip Events Conditions
1:15 AM 51.1 °F - 36.7 °F 58% 29.95 in 10.0 mi WNW 5.8 mph - N/A   Clear
1:35 AM 53.1 °F - 33.6 °F 48% 29.95 in 10.0 mi Calm Calm - N/A   Clear
1:55 AM 52.5 °F - 34.3 °F 50% 29.95 in 10.0 mi East 4.6 mph - N/A   Clear
2:15 AM 50.5 °F - 34.9 °F 55% 29.95 in 10.0 mi Calm Calm - N/A   Clear
2:35 AM 49.3 °F - 34.9 °F 58% 29.95 in 10.0 mi Calm Calm - N/A   Clear
2:55 AM 51.3 °F - 34.3 °F 52% 29.95 in 10.0 mi Calm Calm - N/A   Clear
3:35 AM 48.7 °F - 32.9 °F 54% 29.95 in 10.0 mi SW 4.6 mph - N/A   Clear
3:55 AM 48.2 °F - 33.6 °F 57% 29.95 in 10.0 mi Calm Calm - N/A   Clear
4:15 AM 45.9 °F 43.6 °F 33.8 °F 63% 29.96 in 10.0 mi SSE 4.6 mph - N/A   Clear
4:35 AM 46.9 °F - 33.1 °F 59% 29.95 in 10.0 mi South 3.5 mph - N/A   Clear
4:55 AM 49.1 °F - 33.3 °F 54% 29.95 in 10.0 mi SSE 3.5 mph - N/A   Clear
5:15 AM 50.0 °F - 32.9 °F 52% 29.96 in 10.0 mi South 3.5 mph - N/A   Clear
5:55 AM 48.2 °F - 33.4 °F 57% 29.96 in 10.0 mi Calm Calm - N/A   Clear
6:15 AM 49.6 °F - 33.3 °F 53% 29.96 in 10.0 mi Calm Calm - N/A   Clear
6:35 AM 46.6 °F - 32.9 °F 59% 29.96 in 10.0 mi South 3.5 mph - N/A   Clear
6:55 AM 49.3 °F - 33.3 °F 54% 29.97 in 10.0 mi SSE 4.6 mph - N/A   Clear
7:15 AM 46.6 °F - 32.9 °F 59% 29.97 in 10.0 mi SSE 4.6 mph - N/A   Clear
7:35 AM 47.8 °F - 33.4 °F 57% 29.97 in 10.0 mi SE 5.8 mph - N/A   Clear
7:55 AM 48.9 °F - 35.1 °F 59% 29.98 in 10.0 mi South 3.5 mph - N/A   Clear
8:15 AM 51.8 °F - 36.0 °F 55% 29.98 in 10.0 mi Calm Calm - N/A   Clear
8:55 AM 57.4 °F - 37.9 °F 48% 29.98 in 10.0 mi Calm Calm - N/A   Clear
9:15 AM 61.0 °F - 40.5 °F 47% 29.99 in 10.0 mi Calm Calm - N/A   Clear
9:35 AM 63.7 °F - 40.1 °F 42% 29.99 in 10.0 mi Calm Calm - N/A   Clear
9:55 AM 66.4 °F - 40.1 °F 38% 29.99 in 10.0 mi Calm Calm - N/A   Clear
10:15 AM 69.6 °F - 40.8 °F 35% 30.00 in 10.0 mi Calm Calm - N/A   Clear
10:35 AM 71.8 °F - 40.8 °F 33% 30.00 in 10.0 mi NNE 3.5 mph - N/A   Clear
10:55 AM 73.8 °F - 41.2 °F 31% 29.99 in 10.0 mi NNE 3.5 mph - N/A   Clear
11:15 AM 77.2 °F - 42.6 °F 29% 29.98 in 10.0 mi East 5.8 mph - N/A   Clear
11:35 AM 77.4 °F - 42.1 °F 28% 29.98 in 10.0 mi NE 4.6 mph - N/A   Clear
11:55 AM 79.9 °F - 41.4 °F 25% 29.97 in 10.0 mi SE 3.5 mph - N/A   Clear
12:35 PM 82.6 °F - 40.5 °F 22% 29.94 in 10.0 mi SSE 5.8 mph - N/A   Clear
12:55 PM 83.3 °F - 40.1 °F 22% 29.92 in 10.0 mi SE 6.9 mph - N/A   Clear
1:15 PM 84.4 °F - 39.6 °F 20% 29.91 in 10.0 mi ENE 8.1 mph - N/A   Clear
1:35 PM 84.6 °F - 38.7 °F 20% 29.89 in 10.0 mi Calm Calm - N/A   Clear
1:55 PM 85.6 °F - 39.0 °F 19% 29.88 in 10.0 mi SSE 3.5 mph - N/A   Clear
2:15 PM 86.5 °F - 38.3 °F 18% 29.87 in 10.0 mi SW 6.9 mph - N/A   Clear
2:35 PM 86.4 °F - 38.3 °F 18% 29.86 in 10.0 mi WSW 10.4 mph 16.1 mph N/A   Clear
2:55 PM 86.2 °F - 37.9 °F 18% 29.86 in 10.0 mi WSW 6.9 mph - N/A   Clear
3:15 PM 85.6 °F - 37.6 °F 18% 29.85 in 10.0 mi WSW 8.1 mph - N/A   Clear
3:35 PM 87.6 °F - 37.9 °F 17% 29.84 in 10.0 mi SSW 13.8 mph - N/A   Clear
3:55 PM 87.3 °F - 37.8 °F 17% 29.84 in 10.0 mi SSW 10.4 mph - N/A   Clear
4:15 PM 86.9 °F - 37.4 °F 17% 29.84 in 10.0 mi South 6.9 mph - N/A   Clear
4:35 PM 85.5 °F - 38.3 °F 19% 29.84 in 10.0 mi Calm Calm - N/A   Clear
4:55 PM 85.3 °F - 38.5 °F 19% 29.83 in 10.0 mi ESE 8.1 mph - N/A   Scattered Clouds
5:15 PM 82.0 °F - 43.2 °F 25% 29.83 in 10.0 mi East 15.0 mph 20.7 mph N/A   Scattered Clouds
5:35 PM 79.0 °F - 43.7 °F 29% 29.84 in 10.0 mi East 10.4 mph - N/A   Scattered Clouds
5:55 PM 77.4 °F - 43.3 °F 30% 29.84 in 10.0 mi ESE 11.5 mph - N/A   Clear
6:15 PM 75.6 °F - 44.1 °F 32% 29.83 in 10.0 mi East 12.7 mph - N/A   Clear
6:35 PM 74.5 °F - 45.5 °F 36% 29.84 in 10.0 mi East 11.5 mph - N/A   Clear
6:55 PM 72.7 °F - 47.1 °F 40% 29.84 in 10.0 mi East 9.2 mph - N/A   Clear
7:15 PM 71.6 °F - 48.6 °F 44% 29.84 in 10.0 mi East 8.1 mph - N/A   Clear
7:35 PM 71.2 °F - 50.0 °F 47% 29.84 in 10.0 mi East 6.9 mph - N/A   Clear
7:55 PM 70.3 °F - 50.0 °F 48% 29.84 in 10.0 mi East 6.9 mph - N/A   Clear
8:15 PM 70.3 °F - 46.4 °F 42% 29.85 in 10.0 mi SE 10.4 mph - N/A   Clear
8:35 PM 71.1 °F - 43.2 °F 37% 29.86 in 10.0 mi SE 11.5 mph - N/A   Clear
8:55 PM 70.5 °F - 43.0 °F 37% 29.86 in 10.0 mi SE 11.5 mph - N/A   Scattered Clouds
9:15 PM 69.3 °F - 44.4 °F 41% 29.86 in 10.0 mi ESE 12.7 mph - N/A   Clear
11:15 PM 66.2 °F - 51.3 °F 59% 29.86 in 10.0 mi ESE 9.2 mph - N/A   Clear
11:35 PM 65.5 °F - 52.3 °F 62% 29.85 in 10.0 mi ESE 11.5 mph - N/A   Clear
11:55 PM 64.6 °F - 52.7 °F 65% 29.85 in 10.0 mi SE 6.9 mph - N/A   Clear